Location: Newark
(41.8922°N, 9.0050°E)
Time: 23:37:51
(UTC+00:00)

Envisat - Pass Details

Date: 01 February 2020
Orbit: 764 x 766 km, 98.1° (Epoch: 19 February)

Event Time Altitude Azimuth Distance (km) Brightness Sun altitude
Rises 05:12:31 0° 25° (NNE) 3,239 6.4 -16.0°
Reaches altitude 10° 05:15:10 10° 37° (NE) 2,308 5.8 -15.5°
Maximum altitude 05:19:27 27° 95° (E) 1,446 5.3 -14.7°
Drops below altitude 10° 05:23:42 10° 152° (SSE) 2,294 6.0 -13.9°
Sets 05:26:19 0° 164° (SSE) 3,215 6.6 -13.4°
